South Coast: Past 24 Hour Conditions

 

St.Paul Island

10:00 AM ADT 31 October 2014
This table is a summary of hourly weather conditions for the past 24 hours.
Date / Time
(ADT)
Wind(knots) Conditions Visibility(km) Pressure(kPa) Air tempC) Relative humidity(%) Dew pointC)
31 October 2014
10:00 WNW 16 N/A N/A 101.5 8 66 2
9:00 NW 14 N/A N/A 101.4 8 65 2
8:00 NW 15 N/A N/A 101.3 8 63 1
7:00 WNW 15 N/A N/A 101.3 8 66 2
6:00 WNW 15 N/A N/A 101.2 8 66 2
5:00 NW 18 N/A N/A 101.2 8 70 2
4:00 NW 16 N/A N/A 101.1 8 68 2
3:00 NW 14 N/A N/A 101.1 8 65 2
2:00 NW 17 N/A N/A 101.0 8 70 3
1:00 NW 17 N/A N/A 100.9 8 70 3
0:00 NNW 19 N/A N/A 100.9 8 72 3
30 October 2014
23:00 NW 19 N/A N/A 100.9 8 79 5
22:00 WNW 19 N/A N/A 100.9 8 78 5
21:00 WNW 23 N/A N/A 100.8 8 75 4
20:00 WNW 24 N/A N/A 100.8 8 74 4
19:00 WNW 23 N/A N/A 100.8 8 78 5
18:00 WNW 21 N/A N/A 100.7 9 83 6
17:00 W 21 N/A N/A 100.6 9 85 7
16:00 W 18 N/A N/A 100.6 10 89 8
15:00 W 18 N/A N/A 100.5 10 90 8
14:00 W 15 N/A N/A 100.5 10 92 9
13:00 WSW 22 N/A N/A 100.5 10 92 9
12:00 W 28 N/A N/A 100.4 11 93 10
11:00 W 28 N/A N/A 100.4 10 96 10
10:00 WSW 20 N/A N/A 100.4 10 100 10
 
Map of Atlantic - Newfoundland marine weather areas Southwestern Grand Banks - 44138 Banquereau - 44139 Tail of the Bank - 44140 Nickerson Bank - 44251 Northeast Burgeo Bank - 44255 Blanc-Sablon Airport Cap Whittle Chevery Natashquan Airport Heath Point Miscou Island Grand Étang Ingonish Beach North Mountain St.Paul Island J.A. Douglas McCurdy Sydney Airport Charlottetown Airport East Point North Cape Argentia Bonavista Burgeo Cape Race Corner Brook Daniel's Harbour Englee Ferolle Point La Scie Port aux Basques Rocky Harbour Sagona Island St. Anthony Airport St. John's Int'l Airport St. Lawrence Stephenville Airport Twillingate Winterland Wreckhouse Cartwright Airport Mary's Harbour Grates Cove Pool's Island Marticot Island Long Pond Îles de la Madeleine Airport
Legend: buoyBuoy land stationLand Station